Powrót do katalogu

DELTA 1 DEB

AktywnyPO
NORAD 7849·DEBRIS·🇺🇸 United States

Wystrzelony Jul 23, 1972 z Vandenberg Space Force Base

Loading…

Następne Przeloty (najbliższe 24 godziny)

TLE

ŚwieżeSource: Space-Track

Epoka: Sep 14, 2026, 10:19 UTC

1 07849U 72058V   26257.42997695  .00001427  00000-0  60321-3 0  9992
2 07849  98.0453 330.9772 0319261 159.5640 201.8647 14.02815945565724

Śledź DELTA 1 DEB w czasie rzeczywistym z AllMySat

Download on the App Store